SCP
0 -0 -0 -0 -0 -0 0 0 0 0 0 0 0 0 0 0 0 0 0 0 0 0 0 0 0 0 0 0 0 0 0 0 0 0 0 0 0 0 0 0 0 0 0
-0 -0 -0 -0 -0 -0 0 0 0 0 0 0 0 0 0 0 0 0 0 0 0 0 0 0 0 0 0 0 0 0 0 0 0 0 0 0 0 0 0 0 0 0 0
-0 -0 -0 -0 -0 0 0 0 0 0 0 0 0 0 0 0 0 0 0 0 0 0 0 0 0 0 0 0 0 0 0 0 0 0 0 0 0 0 0 0 0 0 0
0 0 -0 -0 0 0 0 0 0 0 0 0 0 0 0 0 0 0 0 0 0 0 0 0 0 0 0 0 0 0 0 0 0 0 0 0 0 0 0 0 0 0 0
0 0 0 0 0 0 0 0 0 0 0 0 0 0 0 0 0 0 0 0 0 0 0 0 0 0 0 0 0 0 0 0 0 0 0 0 0 0 0 0 0 0 0
0 0 0 0 0 0 0 0 0 0 0 0 0 0 0 0 0 0 0 0 0 0 0 0 0 0 0 0 0 0 0 0 0 0 0 0 0 0 0 0 0 0 0
0 0 0 0 0 0 0 0 0 0 0 0 0 0 0 0 0 0 0 0 0 0 0 0 0 0 0 0 0 0 0 0 0 0 0 0 0 0 0 0 0 0 0
0 0 0 0 0 0 0 0 0 0 0 0 0 0 0 0 0 0 0 0 0 0 0 0 0 0 0 0 0 0 0 0 0 0 0 0 0 0 0 0 0 0 0
0 0 0 0 0 0 0 0 0 0 0 0 0 0 0 0 0 0 0 0 0 0 0 0 0 0 0 0 0 0 0 0 0 0 0 0 0 0 0 0 0 0 0
0 0 0 0 0 0 0 0 0 0 0 0 -0 -0 -0 0 0 0 0 0 0 0 0 0 0 0 0 0 0 0 0 0 0 0 0 0 0 0 0 0 0 0 0
0 0 0 0 0 0 0 0 0 0 -0 -0 -0 -0 -0 0 0 0 0 0 0 0 0 0 0 0 0 0 0 0 0 0 0 0 0 0 0 0 0 0 0 0 0
0 0 0 0 0 0 0 0 0 -0 -0 -0 -0 -0 0 0 0 0 0 0 0 0 0 0 0 0 0 0 0 0 0 0 0 0 0 0 0 0 0 0 0 0 0
0 0 0 0 0 0 0 0 -0 -0 -0 0 0 0 0 0 0 0 0 0 0 0 0 0 0 0 0 0 0 0 0 0 0 0 0 0 0 0 0 0 0 0 0
0 0 0 0 0 0 0 -0 -0 -0 0 0 0 0 0 0 0 0 0 0 0 0 0 0 0 0 0 0 0 0 0 0 0 0 0 0 0 0 0 0 0 0 0
0 0 0 -0 -0 -0 -0 -0 -0 0 0 0 0 0 0 0 0 0 0 0 0 0 0 0 0 0 0 0 0 0 0 0 0 0 0 0 0 0 0 0 0 0 0
0 0 0 -0 -0 -0 -0 -0 -0 0 0 0 0 0 0 0 0 0 0 0 0 0 0 0 0 0 0 0 0 0 0 0 0 0 0 0 0 0 0 0 0 0 0
0 0 0 -0 -0 0 -0 -0 -0 0 0 0 0 0 0 0 0 0 0 0 0 0 0 0 0 0 0 0 0 0 0 0 0 0 0 0 0 0 0 0 0 0 0
0 0 0 0 0 0 -0 -0 -0 0 0 0 0 0 0 0 0 0 0 0 0 0 0 0 0 0 0 0 0 0 0 0 0 0 0 0 0 0 0 0 0 0 0
0 0 0 0 0 0 -0 -0 -0 0 0 0 0 0 0 0 0 0 0 0 0 0 0 0 0 0 0 0 0 0 0 0 0 0 0 0 0 0 0 0 0 0 0
0 0 0 0 0 0 -0 -0 -0 0 0 0 0 0 0 0 0 0 0 0 0 0 0 0 0 0 0 0 0 0 0 0 0 0 0 0 0 0 0 0 0 0 0
0 0 0 0 0 0 0 0 0 0 0 0 0 0 0 0 0 0 0 0 0 0 0 0 0 0 0 0 0 0 0 0 0 0 0 0 0 0 0 0 0 0 0
0 0 0 0 0 0 0 0 0 0 0 0 0 0 0 0 0 0 0 0 0 0 0 0 0 0 0 0 0 0 0 0 0 0 0 0 0 0 0 0 0 0 0
0 0 0 0 0 0 0 0 0 0 0 0 0 0 0 0 0 0 0 0 0 0 0 0 0 0 0 0 0 0 0 0 0 0 0 0 0 0 0 0 0 0 0
0 0 0 0 0 0 0 0 0 0 0 0 0 0 0 0 0 0 0 0 0 0 0 0 0 0 0 0 0 0 0 0 0 0 0 0 0 0 0 0 0 0 0
0 0 0 0 0 0 0 0 0 0 0 0 0 0 0 0 0 0 0 0 0 0 0 0 0 0 0 0 0 0 0 0 0 0 0 0 0 0 0 0 0 0 0
0 0 0 0 0 0 0 0 0 0 0 0 0 0 0 0 0 0 0 0 0 0 0 0 0 0 0 0 0 0 0 0 0 0 0 0 0 0 0 0 0 0 0
Wind_Speed
4 4 4 5 4 5 6 6 6 5 4 3 3 2 2 2 2 2 2 2 2 2 2 1 2 2 2 2 2 2 2 2 2 2 2 1 1 1 1 1 1 1 2
5 5 5 5 4 5 5 6 5 5 4 3 2 2 3 2 2 2 2 1 1 1 1 1 1 1 1 2 2 2 1 1 2 1 1 2 2 1 1 1 1 1 1
6 6 5 5 4 4 5 5 5 5 5 4 3 3 3 1 1 1 1 1 1 1 1 1 1 1 1 1 1 1 1 1 1 1 1 1 1 2 1 1 1 1 0
6 6 6 6 5 4 4 5 5 5 4 4 3 4 3 2 2 2 2 2 1 1 1 0 0 0 0 0 1 0 0 0 1 1 0 1 1 0 3 2 1 1 1
5 6 6 5 5 5 4 4 4 4 4 4 4 3 2 2 1 2 2 2 2 1 1 1 1 1 0 0 0 0 1 0 1 1 1 1 1 1 2 3 3 2 2
5 5 5 6 5 5 5 5 4 3 3 4 3 3 2 2 2 2 2 1 1 2 2 1 1 1 1 1 1 1 1 1 1 1 1 1 1 1 1 3 3 3 3
5 5 5 6 6 6 5 5 5 4 4 4 3 3 3 2 2 2 2 1 1 1 2 1 1 1 2 1 1 1 1 1 2 2 2 1 2 2 1 2 3 3 3
5 5 5 5 6 6 5 5 5 4 4 4 3 3 2 1 1 1 1 1 1 1 1 1 1 2 2 2 1 1 2 2 2 3 2 2 2 2 2 2 2 4 3
5 6 5 5 6 6 5 5 4 4 3 3 3 2 2 2 2 1 1 1 1 1 1 1 1 2 2 2 2 2 2 2 2 3 3 2 2 2 2 2 2 2 4
5 5 5 5 5 5 4 4 4 4 3 3 2 2 2 2 2 1 2 2 1 1 1 1 2 2 2 2 2 2 2 3 3 3 3 3 3 2 2 2 2 3 4
6 5 5 5 5 5 5 4 4 4 3 2 2 2 1 1 1 1 2 2 1 2 2 2 2 2 3 3 3 3 3 4 4 3 4 4 4 3 3 2 3 3 4
6 6 6 6 5 5 4 4 3 3 3 2 2 2 1 1 1 2 2 1 2 2 2 2 2 3 3 3 3 4 4 4 4 4 4 5 4 4 3 3 4 4 4
6 5 6 6 5 5 5 4 4 3 3 2 2 2 1 1 2 2 1 2 2 2 2 3 3 3 3 3 4 4 4 4 4 4 5 5 4 5 4 4 4 4 4
6 6 5 5 5 5 5 4 4 4 3 3 2 2 2 2 2 1 1 2 2 2 3 3 3 3 3 4 4 4 4 4 4 5 5 5 5 6 5 5 5 4 4
5 5 5 5 5 5 4 4 4 3 3 3 2 2 1 1 2 2 2 2 2 3 3 3 3 3 3 4 4 4 4 4 5 5 5 6 7 9 8 6 5 4 4
4 5 5 5 5 4 4 4 3 3 3 3 2 2 1 1 2 2 2 2 2 3 3 3 4 4 4 6 8 6 4 4 5 6 6 6 7 10 13 14 13 10 7
3 4 4 4 4 4 4 4 4 3 3 2 2 2 2 2 2 2 2 3 3 3 3 4 4 4 5 9 10 10 5 5 5 6 6 6 6 9 6 10 13 13 16
3 3 3 3 3 3 3 3 3 3 3 3 2 2 2 2 2 2 3 3 3 3 4 4 4 5 6 10 11 11 6 5 6 6 7 7 7 7 7 6 7 7 8
2 2 3 3 3 3 3 3 3 3 3 3 3 3 2 2 2 3 4 3 3 3 4 4 4 5 7 10 11 11 4 5 6 6 6 7 7 11 14 8 7 7 7
2 2 2 3 3 3 3 3 3 3 3 3 3 2 2 3 3 4 4 3 3 4 4 4 5 6 6 10 12 11 4 5 5 5 6 10 11 13 14 8 6 8 7
2 2 2 2 2 3 3 3 3 3 3 3 2 2 3 3 4 3 3 3 3 3 4 5 5 5 7 9 11 11 4 4 5 5 5 6 13 15 15 12 7 11 10
2 2 2 2 2 3 4 3 4 3 3 2 3 3 3 3 3 3 3 3 3 3 4 4 5 4 5 7 9 12 11 10 6 6 5 6 14 15 16 12 12 15 13
3 2 3 3 2 3 4 4 4 3 3 3 3 3 3 3 3 3 4 3 3 3 4 4 5 5 4 5 10 12 13 13 8 6 11 14 16 15 11 13 15 12 6
3 3 3 3 4 3 4 4 3 3 3 3 3 3 3 3 3 3 3 3 3 4 4 4 5 5 5 4 4 4 5 9 8 7 10 15 15 13 12 11 8 5 5
2 3 3 4 4 4 4 3 3 3 3 3 3 3 3 3 3 3 3 4 5 5 5 5 5 5 6 8 11 8 6 5 7 8 6 5 5 5 5 5 5 5 5
3 3 4 4 4 3 4 3 3 4 4 3 3 3 3 3 3 3 4 7 8 10 11 11 9 8 11 14 15 15 15 16 15 10 6 7 6 6 6 6 5 5 5
Wind_Direction
150 139 138 129 130 129 130 136 133 138 137 136 140 142 141 134 116 111 102 74 60 58 44 34 42 29 33 22 21 19 8 5 358 352 325 293 214 160 132 91 68 57 54
143 146 142 131 137 137 140 139 137 142 145 144 145 135 123 125 128 113 95 93 75 74 61 54 48 41 28 16 18 21 4 349 26 26 347 341 342 324 169 131 125 72 33
154 154 149 144 145 145 148 145 142 142 142 137 121 101 84 71 97 147 138 120 82 86 74 33 44 42 46 25 3 8 18 337 331 65 85 34 302 322 296 225 170 156 198
151 154 152 151 148 143 133 128 133 137 140 140 143 149 157 172 183 164 146 138 128 104 104 78 17 7 24 342 301 21 345 347 292 316 313 190 184 269 312 306 284 248 245
154 151 148 144 138 133 132 132 133 136 144 146 150 154 157 167 150 133 148 156 154 165 159 193 212 232 227 222 284 315 305 257 242 278 305 306 292 233 230 279 298 311 280
145 142 141 136 135 134 136 140 140 147 147 146 152 160 164 172 163 168 179 185 174 173 175 187 213 222 219 217 225 233 264 260 256 260 260 248 251 270 258 269 287 290 283
144 144 144 143 139 141 147 149 148 156 156 155 160 161 167 177 188 190 190 188 185 182 189 184 206 225 221 217 213 215 244 253 248 247 250 248 244 249 263 269 284 290 284
145 146 149 146 145 149 153 155 156 160 158 156 160 160 162 163 177 184 183 200 203 196 172 179 218 235 235 226 211 219 231 236 244 257 257 255 261 256 239 236 265 294 289
148 147 147 147 149 152 157 158 155 147 147 149 149 155 160 161 175 195 195 209 209 191 178 183 227 241 244 233 219 222 232 229 231 238 245 248 255 254 248 235 211 233 280
156 152 147 146 143 143 145 144 142 143 142 143 151 149 157 161 173 189 203 206 210 199 205 208 227 238 238 232 225 232 236 235 239 229 233 241 242 244 240 233 232 222 238
164 158 152 145 141 139 141 141 143 137 136 141 143 149 169 171 184 206 214 206 206 217 229 225 231 238 243 236 226 231 232 235 245 246 238 243 240 239 242 235 233 235 234
161 157 152 145 144 148 148 147 145 140 146 149 151 166 174 182 207 215 215 206 213 224 234 239 237 239 242 238 231 236 237 235 239 243 243 247 246 243 240 236 237 238 235
159 160 157 157 159 160 157 154 153 153 151 150 157 167 181 198 215 210 212 212 215 228 237 242 245 244 245 242 240 236 240 241 240 241 242 246 242 248 244 240 242 244 250
167 168 169 168 164 161 159 158 160 157 156 160 170 185 197 202 200 197 203 212 219 231 236 239 244 245 248 245 246 241 243 248 249 247 246 246 240 244 246 247 246 244 249
177 177 176 169 162 160 162 161 161 159 162 169 182 198 198 197 191 201 211 217 226 236 237 243 248 246 247 244 244 246 248 251 258 258 254 252 248 247 250 252 246 241 245
182 179 171 164 164 164 167 165 167 164 162 176 191 189 204 205 202 214 224 231 239 244 246 250 251 252 257 261 266 265 253 253 256 262 262 259 256 256 261 262 259 249 245
173 174 173 170 167 168 167 172 171 159 163 182 187 189 206 216 215 217 230 238 241 244 250 251 250 254 256 264 270 270 265 252 255 257 260 267 262 266 256 262 264 261 257
173 169 166 161 157 150 148 151 151 158 171 184 195 199 204 218 224 225 235 241 240 242 247 251 250 252 258 267 272 275 268 256 255 255 255 259 262 259 261 257 258 255 257
168 167 161 151 149 150 152 149 159 167 177 192 204 208 207 217 229 238 245 245 244 252 252 254 254 258 265 269 273 276 260 256 260 260 260 262 262 269 273 268 262 266 265
115 124 122 122 139 157 148 156 177 184 198 202 206 207 208 220 233 240 246 247 242 247 254 260 255 253 258 268 276 277 256 259 266 266 263 268 272 275 277 268 260 265 267
104 114 123 142 169 162 154 176 192 207 204 192 204 217 219 226 235 242 245 248 247 252 257 264 266 259 261 274 279 280 272 259 269 274 273 269 278 280 280 277 261 263 271
145 149 156 183 188 172 169 192 211 207 185 191 213 227 230 234 234 239 250 246 242 253 262 267 274 268 267 273 277 279 279 281 273 272 272 273 280 282 282 280 270 272 276
189 186 187 198 207 193 183 202 215 188 184 203 226 234 235 236 234 234 244 251 246 247 258 259 268 276 270 273 282 284 285 286 283 274 277 282 285 285 282 276 276 276 264
206 200 198 209 219 211 203 208 204 187 191 217 234 234 235 244 244 242 238 241 244 248 255 259 266 276 278 273 272 270 278 283 282 279 279 283 283 280 274 275 274 259 245
223 210 212 220 225 216 215 212 201 189 204 222 234 239 238 240 246 247 241 244 242 241 252 256 256 267 277 275 279 285 281 276 271 283 279 274 273 268 263 259 254 248 247
218 221 226 229 230 220 221 220 207 198 206 226 235 236 239 245 246 258 278 266 260 270 270 270 270 271 273 285 289 290 290 291 289 288 277 273 268 266 264 264 259 246 242